Location: *
(51.1248°S, 108.4023°W)
Time: 01:23:35
(UTC+00:00)

Cosmos 1544 - Pass Details

Date: 30 October 2021
Orbit: 467 x 486 km, 82.5° (Epoch: 01 December)

Event Time Altitude Azimuth Distance (km) Brightness Sun altitude
Exits shadow 07:18:21 31° 116° (ESE) 880 4.6 -24.8°
Drops below altitude 10° 07:20:56 10° 154° (SSE) 1,687 6.7 -24.8°
Sets 07:23:10 0° 162° (SSE) 2,580 8.1 -24.7°
